Regional Weather Roundup
Issued by NWS Cleveland, OH

Home | Current Version | Previous Version | Graphics & Text | Print | Product List | Glossary On
Versions: 1 2 3 4 5 6 7 8 9 10 11 12 13 14 15 16 17 18 19 20 21 22 23 24 25 26 27 28 29 30 31 32 33 34 35 36 37 38 39 40 41 42 43 44 45 46 47 48 49 50
000
ASUS41 KCLE 050010
RWRCLE
OHIO REGIONAL WEATHER ROUNDUP
NATIONAL WEATHER SERVICE CLEVELAND, OH
800 PM EDT FRI SEP 04 2015

NOTE: "FAIR" INDICATES FEW OR NO CLOUDS BELOW 12,000 FEET WITH NO
SIGNIFICANT WEATHER AND/OR OBSTRUCTIONS TO VISIBILITY.

OHZ001>008-015>018-024>027-034-035-043-044-050100-
   NORTHWEST OHIO

CITY           SKY/WX    TMP DP  RH WIND       PRES   REMARKS
DEFIANCE       FAIR      74  67  78 CALM      30.04F
FINDLAY        FAIR      70  65  84 SW6       30.04S
TOLEDO EXPRESS FAIR      74  69  85 SW8       30.02F
TOLEDO EXEC    FAIR      73  65  75 S7        30.03F
LIMA           LGT RAIN  70  65  84 CALM      30.05F
$$

OHZ009>014-019>023-028>033-038-089-050100-
   NORTHEAST OHIO

CITY           SKY/WX    TMP DP  RH WIND       PRES   REMARKS
CLE-HOPKINS    FAIR      75  67  76 SW7       30.07S
CLE-LAKEFRONT  FAIR      81  66  60 SE8       30.03F
CUY CO. ARPT   MOCLDY    81  66  61 S12       30.07S
LORAIN-ELYRIA  FAIR      70  62  76 S5        30.07R
ASHTABULA      FAIR      75  70  84 E6        30.10R
AKRON-CANTON   MOCLDY    78  67  68 S3        30.08S
WOOSTER        FAIR      70  67  90 S6        30.09S
MANSFIELD      FAIR      71  65  81 W6        30.09R
YOUNGSTOWN     MOCLDY    72  66  81 SE3       30.11R
$$

OHZ042-051>053-060>062-070>072-077>081-050100-
  SOUTHWEST OHIO

CITY           SKY/WX    TMP DP  RH WIND       PRES   REMARKS
CINC-COVINGTON TSTM      74  68  81 NE12      30.08S
CINC-LUNKEN    TSTM      70  32  24 W8        30.08R
HAMILTON       HVY RAIN  73  66  78 NE14G21   30.14R
DAYTON         TSTM      70  65  84 SW12      30.13R
WRIGHT-PAT AFB TSTM      69  67  93 SW10      30.11R
DAYTON GENERAL TSTM      71  64  78 NW14      30.14R
WILMINGTON     FAIR      70  64  81 CALM      30.09R
$$

OHZ036-037-039>041-045>050-054>059-063>069-073>076-082>088-050100-
  CENTRAL AND SOUTHEAST OHIO

CITY           SKY/WX    TMP DP  RH WIND       PRES   REMARKS
COLUMBUS       CLOUDY    69  66  90 CALM      30.07F
OSU AIRPORT    FAIR      68  67  96 NW7       30.08S
BOLTON FIELD   LGT RAIN  67  65  94 E5        30.07F
RICKENBACK AFB FAIR      68  65  89 S3        30.08S
NEWARK         FAIR      71  63  75 W7        30.08S
MARION         FAIR      70  66  87 SE3       30.06F
LANCASTER      LGT RAIN  69  66  90 SE5       30.09S
ZANESVILLE     FAIR      76  67  73 SE3       30.08S
NEW PHILLY     FAIR      74  71  91 CALM      30.08S
$$



USA.gov is the U.S. government's official web portal to all federal, state and local government web resources and services.